Skip Page Navigation
NASA JPL Caltech
NASA Logo - Jet Propulsion Laboratory + View the NASA Portal
+ Center for Near-Earth Object Studies
JPL Home Earth Solar System Stars & Galaxies Technology
JPL Solar System Dynamics
BODIES ORBITS EPHEMERIDES TOOLS PHYSICAL DATA DISCOVERY FAQ SITE MAP
JPL Small-Body Database Browser
Search: [ help ]  
103676 (2000 CQ59)
Classification: Main-belt Asteroid          SPK-ID: 2103676
Ephemeris | Orbit Diagram | Orbital Elements | Mission Design | Physical Parameters | Discovery Circumstances | Close-Approach Data ]

[ show orbit diagram ]
Orbital Elements at Epoch 2459200.5 (2020-Dec-17.0) TDB
Reference: JPL 25 (heliocentric ecliptic J2000)
 Element Value Uncertainty (1-sigma)   Units 
e .1389587286344828 3.0304e-08  
a 2.586064166914117 1.2836e-08 au
q 2.226707978112538 8.0483e-08 au
i 5.747671234454867 4.4035e-06 deg
node 182.6041140052508 3.4762e-05 deg
peri 72.87106886285137 3.9552e-05 deg
M 254.6885140340992 2.111e-05 deg
tp 2459644.855553052822
(2022-Mar-06.35555305)
9.1118e-05 TDB
period 1518.998593855303
4.16
1.1309e-05
3.096e-08
d
yr
n .2369982444067311 1.7645e-09 deg/d
Q 2.945420355715695 1.462e-08 au
  Orbit Determination Parameters
   # obs. used (total)      829  
   data-arc span      10605 days (29.03 yr)  
   first obs. used      1992-03-02  
   last obs. used      2021-03-15  
   planetary ephem.      DE441  
   SB-pert. ephem.      SB441-N16  
   condition code      0  
   norm. resid. RMS      .51715  
   source      ORB  
   producer      Otto Matic  
   solution date      2021-Apr-13 15:48:03  

Additional Information
 Earth MOID = 1.21888 au 
 Jupiter MOID = 2.1094 au 
 T_jup = 3.401 
[ show covariance matrix ]

Ephemeris | Orbit Diagram | Orbital Elements | Mission Design | Physical Parameters | Discovery Circumstances | Close-Approach Data ]

Physical Parameter Table
Parameter Symbol Value Units Sigma Reference Notes
absolute magnitude H 15.62   n/a E2021B55  

103676 (2000 CQ59)          Discovered 2000-Feb-02 by LINEAR at Socorro
Reference: 20051019/Numbers.arcLast Updated: 2005-10-26

[ hide close-approach data ]
Close-Approach Data   ...sorted by Date/Time (TDB)
Date/Time (TDB) Time Uncertainty
(days_HH:MM)
Body Nominal Distance (au) Minimum Distance (au) Maximum Distance (au) V-relative (km/s) V-infinity (km/s) JD (TDB) Time Uncertainty (minutes) Semi-major axis (km) Semi-minor axis (km) range-LOV angle (deg) N-sigma BP Orbit Ref. Reference Modified
2039-Apr-15 06:21 00:01 Iris 0.0269909668189384 0.0269826239179581 0.026999311810463 6.92031283523171 6.92031280445453 2465893.764412100 1.07410610175639 564.019958400253 75.7506910460445 42.957489769639 36692.1065877123 T 25 CATAB v2.0f-lin.ifort 2021-Apr-13 15:48:05 2021-Apr-13 15:48

Alternate Designations
 2000 CQ59 = 1992 EE29 = 2001 LQ13 
Ephemeris | Orbit Diagram | Orbital Elements | Mission Design | Physical Parameters | Discovery Circumstances | Close-Approach Data ]
ABOUT SSD CREDITS/AWARDS PRIVACY/COPYRIGHT GLOSSARY LINKS
FirstGov 2021-Apr-21 09:26 UT
(server date/time)  
NASA Home Page
Site Manager:   Ryan S. Park
Webmaster  Alan B. Chamberlin